Location: Unspecified
(0.0000°N, 0.0000°E)
Time: 00:37:01
(UTC+02:00)

Ariane H10 - Visible Passes

Search period start: 02 July 2016 00:00
Search period end: 12 July 2016 00:00
Orbit: 508 x 34772 km, 7.5° (Epoch: 30 June)

Date Brightness Start Highest point End Pass type
(mag) Time Alt. Az. Time Alt. Az. Time Alt. Az.
02 Jul 5.8 06:31:26 11° W 08:05:38 35° W 15:52:21 10° E visible
03 Jul 8.3 03:06:33 77° WSW 03:29:49 88° SSE 12:17:20 10° E visible
03 Jul 6.1 22:58:23 10° WSW 23:06:18 67° SSE 08:32:48 10° E visible
05 Jul 9.6 06:35:33 10° W 08:07:59 32° W 12:03:17 10° W visible
06 Jul 8.2 03:09:25 75° WSW 03:43:01 89° SSE 12:19:41 10° E visible
06 Jul 6.2 23:00:35 10° WSW 23:09:01 68° SSE 08:35:59 10° E visible
08 Jul 9.6 06:40:36 10° W 08:10:13 30° W 11:45:00 10° W visible
09 Jul 8.1 03:12:15 73° WSW 04:01:36 89° NNW 12:21:58 10° E visible
09 Jul 6.4 23:02:44 10° WSW 23:11:40 70° SSE 08:39:00 10° E visible
11 Jul 9.7 06:45:59 10° W 08:12:22 27° W 11:27:03 10° W visible
